Location: Newark
(7.0858°N, 171.3717°E)
Time: 15:37:54
(UTC+00:00)

Courier 1B Rocket - Pass Details

Date: 04 December 2020
Orbit: 920 x 1202 km, 28.2° (Epoch: 20 January)

Event Time Altitude Azimuth Distance (km) Brightness Sun altitude
Rises 18:41:09 0° 312° (NW) 4,076 7.6 1.0°
Reaches altitude 10° 18:45:30 10° 334° (NNW) 3,125 7.2 2.0°
Maximum altitude 18:49:50 16° 8° (N) 2,720 7.2 3.0°
Drops below altitude 10° 18:54:08 10° 42° (NE) 3,103 7.9 4.0°
Sets 18:58:25 0° 63° (ENE) 4,033 8.9 4.9°
